RYR431F LIME-LEVC

Flight info

Callsign RYR431F
Flight time 1h 42m
Altitude 37000
Route VOG DCT KEMMI DCT GEKBA DCT VAMTU DCT KOLON DCT GANGU DCT PADKO DCT DIVKO DCT NILDU DCT NENDA DCT BCN DCT RODRA DCT PEXOT DCT EBROX DCT LOTOS DCT TORDU M985 SOPET
Aircraft B738/M-SDE2E3FGHIRWXY/LB1

Departure

Time 2026-05-07 11:32
Airport Il Caravaggio International Airport (LIME)

Arrival

Time 2026-05-07 13:14
Airport Valencia Airport (LEVC)
Time Latitude Longitude Altitude Speed Heading
2026-05-07 11:00 45.66813 9.69181 786 ft 0 kts 195°
2026-05-07 11:20 45.66814 9.69182 786 ft 0 kts 195°
2026-05-07 11:24 45.66813 9.69181 786 ft 1 kts 195°
2026-05-07 11:24 45.66790 9.69172 786 ft 5 kts 200°
2026-05-07 11:25 45.66779 9.69131 786 ft 5 kts 288°
2026-05-07 11:25 45.66797 9.69064 786 ft 10 kts 298°
2026-05-07 11:25 45.66852 9.68998 786 ft 10 kts 326°
2026-05-07 11:25 45.66910 9.69017 786 ft 10 kts 70°
2026-05-07 11:26 45.66904 9.69118 786 ft 12 kts 100°
2026-05-07 11:26 45.66882 9.69254 786 ft 15 kts 105°
2026-05-07 11:26 45.66854 9.69403 786 ft 17 kts 105°
2026-05-07 11:26 45.66821 9.69589 786 ft 21 kts 102°
2026-05-07 11:27 45.66781 9.69792 786 ft 21 kts 104°
2026-05-07 11:27 45.66743 9.69991 786 ft 20 kts 105°
2026-05-07 11:27 45.66708 9.70184 786 ft 20 kts 104°
2026-05-07 11:27 45.66674 9.70368 786 ft 19 kts 104°
2026-05-07 11:28 45.66642 9.70549 786 ft 18 kts 105°
2026-05-07 11:28 45.66609 9.70724 786 ft 18 kts 103°
2026-05-07 11:28 45.66577 9.70893 786 ft 17 kts 105°
2026-05-07 11:28 45.66546 9.71053 786 ft 17 kts 107°
2026-05-07 11:29 45.66508 9.71213 786 ft 17 kts 110°
2026-05-07 11:29 45.66469 9.71386 786 ft 19 kts 104°
2026-05-07 11:29 45.66438 9.71574 786 ft 19 kts 95°
2026-05-07 11:29 45.66461 9.71737 786 ft 16 kts 74°
2026-05-07 11:30 45.66467 9.71889 786 ft 15 kts 103°
2026-05-07 11:30 45.66440 9.72035 786 ft 15 kts 103°
2026-05-07 11:30 45.66415 9.72175 786 ft 14 kts 104°
2026-05-07 11:30 45.66390 9.72316 786 ft 15 kts 104°
2026-05-07 11:31 45.66380 9.72438 786 ft 10 kts 77°
2026-05-07 11:31 45.66424 9.72502 786 ft 8 kts
2026-05-07 11:31 45.66460 9.72439 786 ft 15 kts 283°
2026-05-07 11:31 45.66547 9.71968 786 ft 84 kts 285°
2026-05-07 11:32 45.66938 9.69860 879 ft 167 kts 283°
2026-05-07 11:32 45.67266 9.67713 1886 ft 172 kts 266°
2026-05-07 11:32 45.67071 9.66559 2125 ft 189 kts 239°
2026-05-07 11:33 45.66138 9.65234 2704 ft 195 kts 212°
2026-05-07 11:33 45.65104 9.63848 3262 ft 214 kts 226°
2026-05-07 11:33 45.64028 9.62242 3609 ft 232 kts 223°
2026-05-07 11:33 45.62873 9.60569 4160 ft 239 kts 223°
2026-05-07 11:34 45.61696 9.58906 5004 ft 239 kts 224°
2026-05-07 11:34 45.60504 9.57221 5842 ft 238 kts 224°
2026-05-07 11:34 45.59341 9.55566 6660 ft 240 kts 224°
2026-05-07 11:34 45.58137 9.53853 7149 ft 254 kts 224°
2026-05-07 11:35 45.56848 9.52023 7666 ft 262 kts 224°
2026-05-07 11:35 45.55536 9.50149 8261 ft 269 kts 225°
2026-05-07 11:35 45.54217 9.48239 9069 ft 270 kts 225°
2026-05-07 11:35 45.52896 9.46328 9844 ft 274 kts 225°
2026-05-07 11:36 45.51429 9.44570 10494 ft 280 kts 215°
2026-05-07 11:36 45.49706 9.43004 10678 ft 303 kts 211°
2026-05-07 11:36 45.47835 9.41425 10849 ft 325 kts 211°
2026-05-07 11:36 45.45838 9.39750 11212 ft 335 kts 211°
2026-05-07 11:37 45.43812 9.38040 11886 ft 339 kts 211°
2026-05-07 11:37 45.41786 9.36311 12618 ft 342 kts 212°
2026-05-07 11:37 45.39764 9.34568 13355 ft 344 kts 212°
2026-05-07 11:37 45.37695 9.32775 14102 ft 347 kts 212°
2026-05-07 11:38 45.35616 9.30967 14770 ft 351 kts 213°
2026-05-07 11:38 45.33533 9.29152 15461 ft 354 kts 213°
2026-05-07 11:38 45.31422 9.27311 16176 ft 356 kts 213°
2026-05-07 11:38 45.29310 9.25470 16847 ft 360 kts 213°
2026-05-07 11:39 45.27162 9.23598 17500 ft 364 kts 213°
2026-05-07 11:39 45.24980 9.21697 18158 ft 367 kts 213°
2026-05-07 11:39 45.22816 9.19815 18747 ft 370 kts 213°
2026-05-07 11:39 45.20597 9.17887 19358 ft 372 kts 214°
2026-05-07 11:40 45.18407 9.15986 19960 ft 373 kts 214°
2026-05-07 11:40 45.16168 9.14043 20536 ft 376 kts 214°
2026-05-07 11:40 45.13917 9.12093 21102 ft 379 kts 214°
2026-05-07 11:40 45.11662 9.10140 21664 ft 381 kts 214°
2026-05-07 11:41 45.09414 9.08195 22222 ft 383 kts 214°
2026-05-07 11:41 45.07133 9.06224 22744 ft 386 kts 214°
2026-05-07 11:41 45.04828 9.04232 23275 ft 388 kts 214°
2026-05-07 11:41 45.02506 9.02229 23780 ft 391 kts 214°
2026-05-07 11:42 45.00172 9.00217 24230 ft 392 kts 214°
2026-05-07 11:42 44.97857 8.98224 24674 ft 393 kts 214°
2026-05-07 11:42 44.95498 8.96203 25135 ft 394 kts 214°
2026-05-07 11:42 44.93129 8.94215 25573 ft 396 kts 214°
2026-05-07 11:43 44.90770 8.92254 26007 ft 397 kts 214°
2026-05-07 11:43 44.88370 8.90262 26423 ft 399 kts 214°
2026-05-07 11:43 44.86004 8.88295 26840 ft 400 kts 214°
2026-05-07 11:43 44.83593 8.86289 27246 ft 401 kts 214°
2026-05-07 11:44 44.81180 8.84281 27637 ft 403 kts 215°
2026-05-07 11:44 44.78875 8.82015 27985 ft 401 kts 223°
2026-05-07 11:44 44.76856 8.79372 28362 ft 400 kts 229°
2026-05-07 11:44 44.75074 8.76339 28747 ft 399 kts 237°
2026-05-07 11:45 44.73534 8.73141 29128 ft 399 kts 237°
2026-05-07 11:45 44.71980 8.69873 29462 ft 401 kts 238°
2026-05-07 11:45 44.70425 8.66604 29935 ft 400 kts 238°
2026-05-07 11:45 44.68890 8.63391 30461 ft 395 kts 237°
2026-05-07 11:46 44.67356 8.60197 30881 ft 393 kts 237°
2026-05-07 11:46 44.65827 8.57022 31170 ft 394 kts 237°
2026-05-07 11:46 44.64275 8.53811 31505 ft 393 kts 237°
2026-05-07 11:46 44.62748 8.50658 31937 ft 391 kts 237°
2026-05-07 11:47 44.61223 8.47512 32251 ft 391 kts 238°
2026-05-07 11:47 44.59681 8.44336 32552 ft 392 kts 238°
2026-05-07 11:47 44.58158 8.41205 32930 ft 390 kts 238°
2026-05-07 11:47 44.56636 8.38076 33274 ft 388 kts 238°
2026-05-07 11:48 44.55103 8.34931 33589 ft 387 kts 238°
2026-05-07 11:48 44.53592 8.31834 33877 ft 388 kts 238°
2026-05-07 11:48 44.52063 8.28701 34168 ft 387 kts 238°
2026-05-07 11:48 44.50552 8.25610 34360 ft 388 kts 237°
2026-05-07 11:49 44.49024 8.22486 34514 ft 390 kts 238°
2026-05-07 11:49 44.47481 8.19334 34734 ft 390 kts 237°
2026-05-07 11:49 44.45929 8.16171 34954 ft 391 kts 237°
2026-05-07 11:49 44.44404 8.13062 35155 ft 392 kts 237°
2026-05-07 11:50 44.42848 8.09896 35341 ft 393 kts 237°
2026-05-07 11:50 44.41315 8.06781 35528 ft 394 kts 237°
2026-05-07 11:50 44.39748 8.03597 35720 ft 395 kts 237°
2026-05-07 11:50 44.38194 8.00446 35899 ft 395 kts 237°
2026-05-07 11:51 44.36621 7.97258 36083 ft 396 kts 237°
2026-05-07 11:51 44.35062 7.94104 36271 ft 397 kts 237°
2026-05-07 11:51 44.33491 7.90926 36442 ft 398 kts 237°
2026-05-07 11:51 44.31911 7.87733 36642 ft 398 kts 237°
2026-05-07 11:52 44.30334 7.84550 36821 ft 399 kts 237°
2026-05-07 11:52 44.28759 7.81377 36968 ft 398 kts 237°
2026-05-07 11:52 44.27104 7.78254 36974 ft 401 kts 232°
2026-05-07 11:53 44.23050 7.72901 36994 ft 406 kts 224°
2026-05-07 11:53 44.18763 7.67704 36986 ft 406 kts 224°
2026-05-07 11:54 44.14536 7.62462 36981 ft 407 kts 227°
2026-05-07 11:54 44.10794 7.56609 36982 ft 405 kts 231°
2026-05-07 11:55 44.07138 7.50699 36990 ft 403 kts 231°
2026-05-07 11:55 44.03448 7.44775 36967 ft 403 kts 231°
2026-05-07 11:56 43.99779 7.38922 36979 ft 402 kts 231°
2026-05-07 11:56 43.96111 7.33088 36977 ft 402 kts 231°
2026-05-07 11:57 43.92443 7.27267 36973 ft 401 kts 231°
2026-05-07 11:57 43.88756 7.21427 36974 ft 401 kts 231°
2026-05-07 11:58 43.85078 7.15614 36981 ft 400 kts 231°
2026-05-07 11:58 43.81419 7.09840 36978 ft 400 kts 231°
2026-05-07 11:59 43.77761 7.04077 36983 ft 399 kts 231°
2026-05-07 11:59 43.74074 6.98280 36972 ft 398 kts 232°
2026-05-07 12:00 43.71131 6.91917 36980 ft 395 kts 247°
2026-05-07 12:00 43.69076 6.84876 36997 ft 396 kts 248°
2026-05-07 12:01 43.67009 6.77770 36985 ft 397 kts 248°
2026-05-07 12:01 43.64940 6.70734 36980 ft 398 kts 248°
2026-05-07 12:02 43.62833 6.63618 36965 ft 399 kts 248°
2026-05-07 12:02 43.60731 6.56547 36967 ft 400 kts 248°
2026-05-07 12:03 43.58615 6.49447 36966 ft 401 kts 248°
2026-05-07 12:03 43.56489 6.42331 36971 ft 402 kts 248°
2026-05-07 12:04 43.54356 6.35213 36971 ft 401 kts 248°
2026-05-07 12:04 43.52215 6.28089 36964 ft 401 kts 247°
2026-05-07 12:05 43.50081 6.21002 36963 ft 401 kts 247°
2026-05-07 12:05 43.47940 6.13911 36964 ft 400 kts 247°
2026-05-07 12:06 43.45795 6.06832 36961 ft 400 kts 247°
2026-05-07 12:06 43.43650 5.99784 36964 ft 399 kts 247°
2026-05-07 12:07 43.41495 5.92715 36968 ft 399 kts 247°
2026-05-07 12:07 43.39349 5.85693 36968 ft 398 kts 247°
2026-05-07 12:08 43.37210 5.78708 36973 ft 398 kts 247°
2026-05-07 12:08 43.35052 5.71685 36976 ft 398 kts 247°
2026-05-07 12:09 43.32903 5.64707 36982 ft 398 kts 247°
2026-05-07 12:09 43.31100 5.58866 36987 ft 398 kts 246°
2026-05-07 12:10 43.28931 5.51857 36984 ft 399 kts 246°
2026-05-07 12:10 43.26762 5.44864 36991 ft 399 kts 246°
2026-05-07 12:11 43.24574 5.37827 36989 ft 400 kts 246°
2026-05-07 12:11 43.22386 5.30817 36991 ft 400 kts 246°
2026-05-07 12:12 43.20193 5.23817 36996 ft 399 kts 246°
2026-05-07 12:12 43.17998 5.16824 36996 ft 399 kts 246°
2026-05-07 12:13 43.15808 5.09862 36998 ft 399 kts 246°
2026-05-07 12:13 43.13598 5.02855 36997 ft 399 kts 246°
2026-05-07 12:14 43.11406 4.95921 36999 ft 399 kts 246°
2026-05-07 12:14 43.09201 4.88960 36996 ft 398 kts 246°
2026-05-07 12:15 43.06978 4.82005 36999 ft 398 kts 243°
2026-05-07 12:15 43.03903 4.75753 37000 ft 399 kts 229°
2026-05-07 12:16 42.99841 4.70588 37001 ft 400 kts 223°
2026-05-07 12:16 42.95622 4.65560 37006 ft 400 kts 223°
2026-05-07 12:17 42.91457 4.60578 37005 ft 400 kts 223°
2026-05-07 12:17 42.87267 4.55546 37011 ft 401 kts 223°
2026-05-07 12:18 42.83061 4.50492 37231 ft 404 kts 223°
2026-05-07 12:18 42.80947 4.47954 37475 ft 403 kts 223°
2026-05-07 12:18 42.78865 4.45458 37693 ft 403 kts 223°
2026-05-07 12:18 42.76754 4.42930 37863 ft 403 kts 223°
2026-05-07 12:19 42.74661 4.40423 38039 ft 404 kts 223°
2026-05-07 12:19 42.72552 4.37902 38215 ft 403 kts 223°
2026-05-07 12:19 42.70436 4.35374 38397 ft 403 kts 223°
2026-05-07 12:19 42.68315 4.32843 38565 ft 403 kts 223°
2026-05-07 12:20 42.66210 4.30334 38703 ft 403 kts 223°
2026-05-07 12:20 42.64115 4.27838 38836 ft 403 kts 223°
2026-05-07 12:20 42.62004 4.25326 38958 ft 402 kts 223°
2026-05-07 12:21 42.57798 4.20328 39009 ft 405 kts 223°
2026-05-07 12:21 42.53540 4.15276 39017 ft 406 kts 223°
2026-05-07 12:22 42.49300 4.10255 39015 ft 406 kts 223°
2026-05-07 12:22 42.45042 4.05224 39015 ft 407 kts 223°
2026-05-07 12:23 42.40781 4.00197 39017 ft 406 kts 223°
2026-05-07 12:23 42.36503 3.95159 39015 ft 406 kts 223°
2026-05-07 12:24 42.32266 3.90179 39013 ft 405 kts 223°
2026-05-07 12:24 42.28003 3.85177 39013 ft 403 kts 222°
2026-05-07 12:25 42.24249 3.79636 39009 ft 400 kts 235°
2026-05-07 12:25 42.21065 3.73516 39011 ft 399 kts 235°
2026-05-07 12:26 42.17876 3.67413 39008 ft 398 kts 234°
2026-05-07 12:26 42.14668 3.61323 39013 ft 397 kts 234°
2026-05-07 12:27 42.11483 3.55302 39005 ft 397 kts 234°
2026-05-07 12:27 42.08271 3.49249 39007 ft 397 kts 234°
2026-05-07 12:28 42.05052 3.43191 39002 ft 398 kts 234°
2026-05-07 12:28 42.01823 3.37128 38999 ft 399 kts 234°
2026-05-07 12:29 41.98584 3.31059 38999 ft 399 kts 234°
2026-05-07 12:29 41.95359 3.25027 38997 ft 400 kts 234°
2026-05-07 12:30 41.92103 3.18948 39001 ft 401 kts 234°
2026-05-07 12:30 41.88830 3.12851 38992 ft 403 kts 234°
2026-05-07 12:31 41.85549 3.06752 38994 ft 403 kts 233°
2026-05-07 12:31 41.82258 3.00646 38994 ft 404 kts 233°
2026-05-07 12:32 41.78983 2.94580 38978 ft 404 kts 233°
2026-05-07 12:32 41.75687 2.88488 38994 ft 403 kts 233°
2026-05-07 12:33 41.70733 2.79351 38993 ft 403 kts 233°
2026-05-07 12:33 41.67426 2.73306 38988 ft 403 kts 232°
2026-05-07 12:34 41.63987 2.67379 38988 ft 402 kts 231°
2026-05-07 12:34 41.60524 2.61495 38992 ft 401 kts 231°
2026-05-07 12:35 41.57081 2.55620 38993 ft 401 kts 231°
2026-05-07 12:35 41.53662 2.49774 38996 ft 400 kts 231°
2026-05-07 12:36 41.50229 2.43911 38993 ft 400 kts 231°
2026-05-07 12:36 41.46813 2.38085 38996 ft 400 kts 231°
2026-05-07 12:37 41.43373 2.32233 38998 ft 400 kts 231°
2026-05-07 12:37 41.39957 2.26430 38997 ft 400 kts 231°
2026-05-07 12:38 41.36506 2.20579 39021 ft 400 kts 231°
2026-05-07 12:38 41.33066 2.14756 39023 ft 401 kts 231°
2026-05-07 12:39 41.29559 2.08974 39021 ft 401 kts 228°
2026-05-07 12:39 41.25833 2.03450 39023 ft 401 kts 227°
2026-05-07 12:40 41.22091 1.97981 39019 ft 402 kts 227°
2026-05-07 12:40 41.18340 1.92464 39016 ft 402 kts 227°
2026-05-07 12:41 41.14593 1.86938 39011 ft 402 kts 227°
2026-05-07 12:41 41.10833 1.81399 39001 ft 403 kts 227°
2026-05-07 12:42 41.07094 1.75901 38994 ft 403 kts 227°
2026-05-07 12:42 41.03332 1.70383 38990 ft 402 kts 227°
2026-05-07 12:43 40.99567 1.64871 38986 ft 402 kts 227°
2026-05-07 12:43 40.95809 1.59376 38987 ft 402 kts 227°
2026-05-07 12:44 40.92043 1.53878 38689 ft 402 kts 227°
2026-05-07 12:44 40.90176 1.51154 38430 ft 396 kts 227°
2026-05-07 12:44 40.88356 1.48503 38146 ft 391 kts 227°
2026-05-07 12:45 40.86535 1.45854 37866 ft 388 kts 226°
2026-05-07 12:45 40.84722 1.43220 37596 ft 385 kts 226°
2026-05-07 12:45 40.82911 1.40593 37324 ft 383 kts 226°
2026-05-07 12:45 40.81723 1.38873 37145 ft 381 kts 226°
2026-05-07 12:46 40.80165 1.36616 36917 ft 380 kts 226°
2026-05-07 12:46 40.78378 1.34028 36649 ft 378 kts 226°
2026-05-07 12:46 40.76605 1.31462 36400 ft 377 kts 226°
2026-05-07 12:46 40.74860 1.28937 36154 ft 376 kts 226°
2026-05-07 12:47 40.73087 1.26377 35779 ft 379 kts 226°
2026-05-07 12:47 40.71896 1.24658 35537 ft 380 kts 226°
2026-05-07 12:47 40.69518 1.21229 35056 ft 381 kts 226°
2026-05-07 12:47 40.68323 1.19506 34819 ft 382 kts 226°
2026-05-07 12:48 40.66529 1.16919 34554 ft 378 kts 226°
2026-05-07 12:48 40.64757 1.14365 34310 ft 375 kts 225°
2026-05-07 12:48 40.63018 1.11862 34080 ft 371 kts 225°
2026-05-07 12:48 40.61279 1.09360 33813 ft 368 kts 225°
2026-05-07 12:49 40.59550 1.06873 33536 ft 365 kts 225°
2026-05-07 12:49 40.57849 1.04431 33273 ft 368 kts 225°
2026-05-07 12:49 40.56091 1.01910 33014 ft 374 kts 226°
2026-05-07 12:49 40.54331 0.99389 32750 ft 377 kts 226°
2026-05-07 12:50 40.52555 0.96849 32413 ft 374 kts 226°
2026-05-07 12:50 40.50811 0.94357 32095 ft 371 kts 226°
2026-05-07 12:50 40.49056 0.91853 31799 ft 372 kts 226°
2026-05-07 12:50 40.47299 0.89347 31501 ft 374 kts 226°
2026-05-07 12:51 40.45548 0.86852 31207 ft 375 kts 226°
2026-05-07 12:51 40.43761 0.84307 30786 ft 379 kts 226°
2026-05-07 12:51 40.41968 0.81757 30380 ft 382 kts 226°
2026-05-07 12:51 40.40151 0.79172 29962 ft 385 kts 226°
2026-05-07 12:52 40.38340 0.76598 29481 ft 386 kts 226°
2026-05-07 12:52 40.36505 0.73993 29006 ft 388 kts 226°
2026-05-07 12:52 40.34679 0.71402 28545 ft 390 kts 226°
2026-05-07 12:52 40.32839 0.68794 28028 ft 393 kts 226°
2026-05-07 12:53 40.30964 0.66137 27533 ft 395 kts 226°
2026-05-07 12:53 40.29087 0.63480 27051 ft 398 kts 226°
2026-05-07 12:53 40.27220 0.60841 26626 ft 400 kts 226°
2026-05-07 12:53 40.25302 0.58132 26196 ft 404 kts 226°
2026-05-07 12:54 40.23383 0.55429 25789 ft 412 kts 226°
2026-05-07 12:54 40.21416 0.52660 25363 ft 412 kts 226°
2026-05-07 12:54 40.19484 0.49941 24951 ft 410 kts 225°
2026-05-07 12:54 40.17534 0.47199 24541 ft 408 kts 225°
2026-05-07 12:55 40.15619 0.44508 24098 ft 408 kts 225°
2026-05-07 12:55 40.13690 0.41800 23548 ft 404 kts 225°
2026-05-07 12:55 40.11799 0.39146 22929 ft 399 kts 225°
2026-05-07 12:55 40.09914 0.36504 22308 ft 396 kts 225°
2026-05-07 12:56 40.08047 0.33888 21753 ft 391 kts 225°
2026-05-07 12:56 40.06186 0.31285 21203 ft 387 kts 225°
2026-05-07 12:56 40.04353 0.28720 20666 ft 383 kts 225°
2026-05-07 12:56 40.02567 0.26226 20199 ft 379 kts 225°
2026-05-07 12:57 40.00778 0.23730 19727 ft 375 kts 225°
2026-05-07 12:57 39.98998 0.21248 19238 ft 372 kts 225°
2026-05-07 12:57 39.97237 0.18793 18747 ft 369 kts 225°
2026-05-07 12:57 39.95489 0.16358 18356 ft 365 kts 225°
2026-05-07 12:58 39.93765 0.13956 17920 ft 360 kts 226°
2026-05-07 12:58 39.92080 0.11610 17516 ft 355 kts 226°
2026-05-07 12:58 39.90399 0.09272 17129 ft 350 kts 226°
2026-05-07 12:58 39.88740 0.06965 16765 ft 345 kts 226°
2026-05-07 12:59 39.87106 0.04696 16398 ft 341 kts 226°
2026-05-07 12:59 39.85509 0.02480 16041 ft 337 kts 225°
2026-05-07 12:59 39.83914 0.00269 15698 ft 333 kts 225°
2026-05-07 12:59 39.82334 -0.01919 15298 ft 331 kts 225°
2026-05-07 13:00 39.80763 -0.04091 14947 ft 326 kts 225°
2026-05-07 13:00 39.79225 -0.06218 14569 ft 318 kts 225°
2026-05-07 13:00 39.77746 -0.08262 14230 ft 312 kts 225°
2026-05-07 13:00 39.76265 -0.10307 13917 ft 310 kts 225°
2026-05-07 13:01 39.74791 -0.12341 13569 ft 308 kts 225°
2026-05-07 13:01 39.73319 -0.14371 13210 ft 306 kts 225°
2026-05-07 13:01 39.71860 -0.16380 12867 ft 304 kts 225°
2026-05-07 13:01 39.70588 -0.18559 12491 ft 305 kts 246°
2026-05-07 13:02 39.70280 -0.20744 12257 ft 305 kts 272°
2026-05-07 13:02 39.70953 -0.23327 11953 ft 305 kts 306°
2026-05-07 13:02 39.72431 -0.25281 11672 ft 302 kts 316°
2026-05-07 13:02 39.73857 -0.27308 11319 ft 302 kts 306°
2026-05-07 13:03 39.74980 -0.29571 11017 ft 301 kts 297°
2026-05-07 13:03 39.75521 -0.30977 10825 ft 300 kts 293°
2026-05-07 13:03 39.76319 -0.33493 10512 ft 299 kts 289°
2026-05-07 13:03 39.76997 -0.36047 10202 ft 299 kts 287°
2026-05-07 13:04 39.77568 -0.38619 10030 ft 292 kts 283°
2026-05-07 13:04 39.78016 -0.41186 9733 ft 291 kts 279°
2026-05-07 13:04 39.78329 -0.43783 9416 ft 290 kts 276°
2026-05-07 13:04 39.78498 -0.46357 9117 ft 289 kts 271°
2026-05-07 13:05 39.78529 -0.48968 8818 ft 288 kts 267°
2026-05-07 13:05 39.78424 -0.51566 8523 ft 287 kts 263°
2026-05-07 13:05 39.78190 -0.54130 8228 ft 285 kts 259°
2026-05-07 13:05 39.77826 -0.56660 7939 ft 284 kts 256°
2026-05-07 13:06 39.77332 -0.59147 7637 ft 282 kts 249°
2026-05-07 13:06 39.76413 -0.61365 7346 ft 277 kts 232°
2026-05-07 13:06 39.75145 -0.63231 7058 ft 274 kts 222°
2026-05-07 13:06 39.73783 -0.64950 6791 ft 272 kts 221°
2026-05-07 13:07 39.72414 -0.66648 6520 ft 271 kts 221°
2026-05-07 13:07 39.71052 -0.68333 6255 ft 268 kts 221°
2026-05-07 13:07 39.69733 -0.69963 6022 ft 260 kts 221°
2026-05-07 13:07 39.68459 -0.71545 5884 ft 248 kts 221°
2026-05-07 13:08 39.67162 -0.73048 5313 ft 251 kts 209°
2026-05-07 13:08 39.65626 -0.74087 4933 ft 247 kts 202°
2026-05-07 13:08 39.64059 -0.75009 4586 ft 247 kts 202°
2026-05-07 13:08 39.62483 -0.75810 4342 ft 239 kts 187°
2026-05-07 13:09 39.60874 -0.75769 4206 ft 228 kts 156°
2026-05-07 13:09 39.59659 -0.74583 4105 ft 216 kts 128°
2026-05-07 13:09 39.58723 -0.73120 4078 ft 207 kts 125°
2026-05-07 13:09 39.57906 -0.71580 3841 ft 214 kts 121°
2026-05-07 13:10 39.57161 -0.69922 3567 ft 211 kts 116°
2026-05-07 13:10 39.56503 -0.68236 3303 ft 208 kts 114°
2026-05-07 13:10 39.55874 -0.66570 3030 ft 202 kts 114°
2026-05-07 13:10 39.55272 -0.64967 2751 ft 193 kts 115°
2026-05-07 13:11 39.54690 -0.63429 2492 ft 187 kts 114°
2026-05-07 13:11 39.54132 -0.61953 2272 ft 175 kts 114°
2026-05-07 13:11 39.53602 -0.60557 2032 ft 167 kts 114°
2026-05-07 13:11 39.53088 -0.59187 1798 ft 169 kts 115°
2026-05-07 13:12 39.52601 -0.57888 1591 ft 151 kts 115°
2026-05-07 13:12 39.52163 -0.56681 1371 ft 147 kts 112°
2026-05-07 13:12 39.51712 -0.55473 1166 ft 149 kts 114°
2026-05-07 13:12 39.51251 -0.54284 976 ft 146 kts 113°
2026-05-07 13:13 39.50794 -0.53092 785 ft 149 kts 112°
2026-05-07 13:13 39.50331 -0.51856 592 ft 154 kts 112°
2026-05-07 13:13 39.49865 -0.50615 363 ft 151 kts 113°
2026-05-07 13:13 39.49407 -0.49419 218 ft 141 kts 112°
2026-05-07 13:14 39.49041 -0.48446 218 ft 90 kts 115°
2026-05-07 13:14 39.48820 -0.47865 213 ft 53 kts 116°
2026-05-07 13:14 39.48698 -0.47546 214 ft 27 kts 116°
2026-05-07 13:14 39.48652 -0.47336 211 ft 22 kts 86°
2026-05-07 13:15 39.48699 -0.47200 209 ft 14 kts 39°
2026-05-07 13:15 39.48771 -0.47181 217 ft 10 kts 348°
2026-05-07 13:15 39.48839 -0.47216 208 ft 12 kts 338°
2026-05-07 13:15 39.48914 -0.47263 214 ft 12 kts 315°
2026-05-07 13:16 39.48955 -0.47359 214 ft 12 kts 296°
2026-05-07 13:16 39.48990 -0.47455 214 ft 12 kts 297°
2026-05-07 13:16 39.49026 -0.47548 211 ft 11 kts 296°
2026-05-07 13:16 39.49044 -0.47595 210 ft 2 kts 296°
2026-05-07 13:17 39.49059 -0.47611 218 ft 3 kts 346°
2026-05-07 13:17 39.49083 -0.47590 212 ft 6 kts 45°
2026-05-07 13:17 39.49112 -0.47552 208 ft 5 kts 45°
2026-05-07 13:17 39.49118 -0.47544 208 ft 1 kts 45°
2026-05-07 13:18 39.49119 -0.47544 208 ft 0 kts 45°